This is the latest recevied weather packets stored in our database for station/object K1BES. If no packets are shown the sender has not sent any weather packets the latest 10 day(s).
| Time | Temp. | Humidity | Pressure | Rain* | Wind** | Luminosity | Snow |
|---|---|---|---|---|---|---|---|
| 1788118264 | 24.44° C | 92% | 1018.3 hPa | 47.5 mm | - | 87 W/m² | - |
| 1788117959 | 24.44° C | 91% | 1018.6 hPa | 61.21 mm | - | 86 W/m² | - |
| 1788117659 | 24.44° C | 89% | 1018.5 hPa | 45.47 mm | - | 78 W/m² | - |
| 1788117354 | 25° C | 87% | 1018.6 hPa | 11.94 mm | - | 72 W/m² | - |
| 1788117049 | 25.56° C | 86% | 1018.8 hPa | 3.56 mm | - | 58 W/m² | - |
| 1788116745 | 26.11° C | 87% | 1018.6 hPa | 1.78 mm | - | 71 W/m² | - |
| 1788116441 | 26.67° C | 88% | 1018.7 hPa | 1.27 mm | - | 69 W/m² | - |
| 1788116139 | 26.67° C | 87% | 1018.9 hPa | 1.27 mm | - | 133 W/m² | - |
| 1788115835 | 26.67° C | 88% | 1019.1 hPa | 0 mm | - | 133 W/m² | - |
| 1788115534 | 26.67° C | 87% | 1019 hPa | 0 mm | - | 138 W/m² | - |
| 1788115228 | 26.67° C | 86% | 1018.5 hPa | 0 mm | - | 154 W/m² | - |
| 1788114923 | 26.11° C | 87% | 1019.1 hPa | 0 mm | - | 169 W/m² | - |
| 1788114619 | 26.67° C | 86% | 1019.2 hPa | 0 mm | - | 156 W/m² | - |
| 1788114314 | 26.67° C | 86% | 1019.1 hPa | 0 mm | - | 156 W/m² | - |
| 1788114011 | 27.78° C | 86% | 1019 hPa | 0 mm | - | 124 W/m² | - |
| 1788113707 | 27.78° C | 82% | 1019 hPa | 1.78 mm | - | 137 W/m² | - |
| 1788113406 | 28.33° C | 77% | 1018.8 hPa | 1.78 mm | - | 153 W/m² | - |
| 1788113106 | 29.44° C | 71% | 1019 hPa | 0 mm | - | 169 W/m² | - |
| 1788112804 | 30.56° C | 70% | 1019.1 hPa | 0 mm | - | 134 W/m² | - |
| 1788112499 | 31.11° C | 72% | 1019 hPa | 0 mm | - | 127 W/m² | - |
| 1788112194 | 31.67° C | 72% | 1019.2 hPa | 0 mm | - | 142 W/m² | - |
| 1788111890 | 32.22° C | 70% | 1019.1 hPa | 0 mm | - | 429 W/m² | - |
| 1788111590 | 32.78° C | 69% | 1019.2 hPa | 0 mm | - | 255 W/m² | - |
| 1788111286 | 32.78° C | 67% | 1019.2 hPa | 0 mm | - | 1178 W/m² | - |
| 1788110981 | 32.22° C | 68% | 1019.3 hPa | 0 mm | - | 1098 W/m² | - |
* Rain latest hour (hover to see other rain measurements)
** Current wind speed in m/s (hover to see current wind gust speed)